Wetbulb
57.52 56.47 55.38 54.71 57.48 56.72 56.27 56.37 56.31 59.12 60.52 59.66 59.31 59.15 58.08 56.58 56.07 55.76 55.08 53.44 51.86 51.46
56.33 56.74 55.76 55.58 56.10 55.75 54.97 54.95 55.53 56.87 56.44 58.33 58.59 58.46 58.01 57.11 56.80 55.67 54.68 52.56 51.57 50.60
55.58 55.55 54.88 54.36 53.91 54.32 54.52 54.07 53.93 53.79 54.60 55.35 54.76 55.14 55.54 54.64 54.45 52.79 51.65 51.44 50.01 48.84
53.75 53.89 53.75 53.20 53.13 53.96 54.50 54.06 53.26 52.85 52.67 52.40 52.63 52.90 53.06 51.82 51.66 50.14 49.29 49.13 48.62 48.31
52.57 52.58 52.35 52.23 52.63 53.13 52.75 53.37 52.91 52.51 51.86 51.81 51.90 52.36 52.29 51.73 51.01 50.01 48.65 48.89 49.01 48.88
51.82 51.76 51.67 51.64 51.96 52.22 52.30 52.54 52.70 52.49 51.85 51.62 51.60 51.41 51.71 51.86 51.44 50.75 50.46 50.34 49.98 48.98
51.10 51.30 51.34 51.37 50.46 50.18 50.84 50.95 51.51 51.83 51.72 51.73 51.71 51.60 51.46 50.99 50.30 49.79 49.34 49.15 48.87 48.49
50.40 49.60 48.03 46.88 46.72 47.10 46.93 46.53 47.67 47.76 48.54 49.81 50.47 50.74 49.62 49.20 48.59 47.64 45.98 45.30 44.97 44.39
46.91 46.34 45.99 44.97 44.89 45.09 44.98 45.20 45.56 45.21 45.79 46.65 49.20 51.83 50.32 46.75 44.63 43.73 42.74 42.28 44.37 46.33
46.62 45.81 45.60 45.44 44.80 42.86 42.41 42.22 43.57 44.88 45.76 45.68 46.24 50.42 49.23 46.64 42.21 42.27 43.08 43.14 43.62 44.58
46.58 45.63 45.73 44.37 42.27 40.42 39.25 39.31 40.09 42.77 43.29 43.49 46.60 49.69 48.77 46.88 41.25 40.04 39.60 40.82 41.09 40.20
46.64 44.69 42.67 39.93 38.31 38.15 39.08 38.13 37.82 38.87 40.13 41.25 43.18 48.98 47.68 41.21 37.41 37.09 36.91 37.77 38.26 38.06
45.35 42.03 40.02 38.76 37.95 37.30 37.25 37.35 38.06 36.63 36.82 43.66 40.71 47.16 45.95 39.30 36.67 34.17 35.38 36.69 38.32 43.36
42.80 41.27 39.77 37.67 36.87 36.15 36.11 35.31 34.52 34.88 33.83 35.09 37.79 41.09 45.02 42.97 35.06 34.37 33.80 35.32 35.70 37.45
MSLP
1012.75 1013.05 1013.27 1013.36 1013.53 1013.75 1013.86 1014.05 1013.96 1013.78 1014.13 1014.33 1014.49 1015.20 1016.39 1016.80 1017.46 1017.99 1018.53 1019.02 1019.57 1019.95
1013.17 1013.46 1013.62 1013.60 1013.50 1013.71 1013.92 1014.14 1014.05 1014.15 1014.04 1014.52 1015.08 1016.26 1017.14 1017.31 1017.66 1018.17 1018.76 1019.39 1019.82 1020.36
1013.58 1013.82 1013.80 1013.85 1013.78 1013.83 1014.07 1014.42 1014.31 1014.34 1014.47 1014.71 1015.54 1016.60 1017.01 1017.84 1017.98 1018.38 1019.20 1019.69 1020.60 1020.85
1013.98 1014.09 1014.07 1014.01 1014.10 1014.17 1014.34 1014.72 1014.76 1015.00 1015.43 1015.82 1016.20 1016.90 1017.81 1018.51 1018.70 1019.12 1019.71 1020.25 1020.80 1021.60
1014.39 1014.47 1014.64 1014.67 1014.59 1014.66 1014.74 1014.98 1015.01 1015.59 1015.88 1016.31 1016.84 1017.63 1018.35 1018.80 1019.06 1019.37 1020.08 1021.02 1021.42 1021.95
1014.94 1015.06 1015.15 1015.28 1015.21 1015.39 1015.58 1015.76 1016.15 1016.43 1016.85 1017.33 1017.87 1018.38 1018.89 1018.99 1019.47 1020.24 1020.98 1021.38 1022.10 1022.09
1015.30 1015.52 1015.75 1015.78 1015.80 1016.05 1016.36 1016.48 1016.72 1017.02 1017.53 1017.98 1018.47 1018.89 1019.34 1019.70 1020.19 1020.68 1021.42 1021.60 1022.06 1022.67
1015.71 1016.02 1016.14 1016.24 1016.61 1016.73 1016.89 1017.20 1017.53 1017.80 1018.13 1018.50 1018.91 1019.34 1019.79 1020.24 1020.67 1021.21 1021.76 1022.28 1022.56 1022.83
1016.14 1016.44 1016.68 1017.05 1017.38 1017.60 1017.88 1018.10 1018.32 1018.61 1018.82 1019.13 1019.42 1019.71 1020.13 1020.56 1021.13 1021.69 1022.14 1022.50 1022.82 1022.78
1016.36 1016.74 1017.16 1017.52 1017.87 1018.42 1018.78 1018.98 1019.25 1019.48 1019.67 1019.88 1020.09 1020.34 1020.72 1021.19 1021.77 1022.22 1022.66 1023.05 1023.32 1023.52
1016.70 1017.19 1017.69 1018.13 1018.69 1019.26 1019.53 1019.81 1019.98 1020.14 1020.22 1020.34 1020.54 1020.72 1021.06 1021.61 1022.36 1022.80 1023.14 1023.48 1023.83 1024.02
1016.97 1017.66 1018.23 1018.89 1019.58 1019.85 1020.16 1020.61 1020.85 1020.89 1020.97 1021.00 1021.15 1021.19 1021.62 1022.17 1022.72 1023.29 1023.82 1024.17 1024.43 1024.76
1017.21 1017.92 1018.68 1019.22 1019.86 1020.38 1020.68 1021.14 1021.38 1021.68 1021.80 1021.87 1021.81 1021.87 1022.26 1023.06 1023.47 1024.19 1024.65 1024.97 1025.09 1024.93
1017.53 1018.14 1018.85 1019.61 1020.15 1020.66 1021.23 1021.78 1022.30 1022.52 1022.55 1022.48 1022.41 1022.48 1022.84 1023.40 1023.93 1024.60 1025.24 1025.54 1025.75 1025.71
Wind_Speed
5 2 1 2 2 3 3 2 2 4 10 12 11 10 1 4 5 7 6 6 4 4
5 4 3 3 2 3 4 3 4 7 11 12 12 10 9 6 6 5 4 5 5 3
4 3 4 4 4 6 6 5 8 8 9 11 10 6 5 4 4 8 4 5 6 4
4 5 5 5 5 5 7 6 9 9 10 10 10 9 7 5 6 10 8 6 9 6
6 6 5 5 5 6 8 6 8 8 9 10 9 8 7 9 8 10 11 7 8 7
6 6 6 6 7 7 6 7 8 9 9 9 8 8 6 10 11 9 8 7 5 6
7 7 6 7 9 9 8 8 8 8 8 8 8 8 7 8 8 9 6 6 6 4
7 7 7 9 8 9 9 8 8 9 8 8 7 6 8 8 8 8 7 5 5 4
7 7 8 7 8 9 8 8 9 8 8 8 6 14 14 9 7 7 7 7 5 5
8 8 8 8 9 8 8 7 8 8 8 8 6 15 15 14 6 7 7 7 6 6
8 8 7 8 9 8 6 7 6 8 7 7 8 17 17 17 8 7 7 6 7 7
10 8 9 9 7 6 8 5 5 5 7 7 7 17 17 13 7 7 7 6 6 6
9 9 8 9 7 3 5 5 5 6 6 10 7 15 16 11 6 6 5 5 6 9
8 9 8 7 4 6 6 6 6 6 5 6 6 8 13 13 5 5 4 4 3 2
Wind_Direction
94 105 167 214 183 178 159 172 162 157 177 150 137 115 82 125 137 150 146 135 136 138
79 80 85 47 66 133 117 120 129 136 118 129 123 142 181 157 135 128 104 119 116 136
105 107 99 102 61 138 126 126 114 99 95 113 105 94 86 86 101 99 87 113 102 75
68 62 64 61 66 88 105 118 102 102 102 95 105 99 102 103 105 111 102 91 112 88
78 77 78 61 70 81 90 92 91 90 91 93 84 88 122 122 103 112 105 103 108 106
79 82 79 78 74 68 82 96 102 105 102 100 103 95 87 106 105 96 93 107 95 102
92 89 86 84 83 80 75 79 86 94 103 106 104 104 100 97 102 105 108 95 100 116
98 95 95 90 79 86 86 82 85 86 85 93 103 111 111 107 105 108 103 104 109 113
108 101 91 86 85 83 79 80 89 89 94 93 95 116 115 112 111 110 112 103 93 105
122 111 106 107 98 86 83 77 73 77 87 88 95 116 118 112 96 100 99 101 98 86
123 116 115 98 95 91 86 97 102 104 102 104 112 121 120 112 99 94 89 96 97 97
140 126 122 119 121 117 110 89 76 82 92 97 103 118 116 106 92 88 85 93 98 100
135 133 133 134 129 98 103 112 108 91 83 109 107 122 122 109 106 91 80 62 83 108
138 137 138 126 118 125 114 99 90 92 79 84 105 130 133 131 106 118 112 109 87 56